Re: [颱風] 1705-"諾盧"飛天大躍進!

作者 dunking
看板 Ty_research
時間 2017-07-31 02:31:12
老颱諾盧在歷經TY和STS之間徘徊很久 終於在深夜飛天大躍進 JTWC速報: 115 KTS!! 狂賀! 2017年西太第一隻達到C4等級的颱風 https://i.imgur.com/PZTbE8a.gif
T值和CI值持續大怒神!! 三圍 CI# /Pressure/ Vmax 6.2 / 938.1mb/119.8kt
Final T# Adj T# Raw T# 6.2 6.7 6.8 Estimated radius of max. wind based on IR : 19 km Center Temp : +18.2C Cloud Region Temp : -75.0C Scene Type : EYE Positioning Method : SPIRAL ANALYSIS Ocean Basin : WEST PACIFIC Dvorak CI > MSLP Conversion Used : CKZ Method Tno/CI Rules : Constraint Limits : 1.3T/6hr Weakening Flag : OFF Rapid Dissipation Flag : OFF https://i.imgur.com/ypeJrxG.gif
JTWC認為還有持續增強至120 KTS https://i.imgur.com/t92MDY8.jpg
WMG眼+W環 深夜的W環能否順利環繞一圈呢? 是否還有機會增強至C5等級呢 拭目以待!! https://i.imgur.com/3C422Ti.gif
https://i.imgur.com/xcjWuxt.gif
https://i.imgur.com/RDvT99K.gif
-- ※ 發信站: 批踢踢實業坊(ptt.cc), 來自: 114.39.32.250 PTT 文章網址: https://www.ptt.cc/bbs/TY_Research/M.1501439475.A.6E8.html
1Fwty84136 :不TT 07/31 02:33
2FEmeraldAZ :超長命 07/31 02:33
3Flanx105 :小鋼炮 07/31 02:34
4Fjefflin555 :也太快, 35m/s 直跳 58m/s 07/31 02:35
5Fjefflin555 :看錯,是 48m/s --> 58m/s 07/31 02:36
6Fkey000130 :大隻雞慢啼 07/31 02:40
7Fhsnu7980 :這眼睛好明顯喔 07/31 02:40
8Fneepa :長得蠻帥的 07/31 02:40
9Fjeffkid :現在才發覺他降到北回歸線以南了… 07/31 02:41
10Feeeee118 :星期六一度殘敗到快解體 真是大難之後 必有後福XD 07/31 02:42
11Fhsnu7980 :所以不會來嗎? 07/31 02:43
12Fjefflin555 :31N 跑到 22N 呀 07/31 02:43
13Fjefflin555 :真的,星期六才 40KTS (20m/s) 完全沒想到 07/31 02:44
14Fwj12240522 :這顆現在漂亮 07/31 02:44
15Fjefflin555 :來猜 CWB 0330 強度會給多少? 07/31 02:47
16FJamesWU94121:它好美 07/31 02:47
17Fjefflin555 :JMA出來了!!! 45m/s 950hPa 07/31 02:48
18Fdunking :從40KTS一路到115KTS 才不過花一天多的時間而已... 07/31 02:48
19Fjefflin555 :目前還是仍然沒有觀察到向北分量 07/31 02:49
20Fjeffkid :不曉得有沒有機會打破獅子山南下記錄 07/31 02:50
21Fjefflin555 :這樣我猜 CWB 等等會給 955hPa、40m/s 07/31 02:51
22Fdaixe :完整又美 07/31 02:57
23Fgn01881106 :這種劫後重生然後大躍進,期待看到它長更大! 07/31 02:58
24Fjefflin555 :題外話,JMA稍早正式宣告NESAT掰掰了 07/31 03:00
25Fkeny80206 :C4炸彈! 07/31 03:00
26Fstaff23 :這顆要是進來台灣 本島等死 07/31 03:01
27Frainstill :去年就3顆比這強的侵台了 還有2顆直接登陸 07/31 03:03
28Fjefflin555 :為甚麼 JMA 對諾盧5日間預測卻只有未來三天的資料? 07/31 03:03
29Fjefflin555 :而且 JMA 預測諾盧未來三天都不會增強 07/31 03:03
30Fstaff23 :問題沒有接續前面這兩顆阿 總雨量搞不好10天下完 07/31 03:05
31Fdunking :梅姬只是風場平均而大而已 諾盧現在不見得輸他 07/31 03:05
32Fstaff23 :快一年份 這對台灣很傷 07/31 03:06
33Fjefflin555 :喔喔,看到了! JMA說 後刻台風5日進路予報を 07/31 03:06
34Fjefflin555 :更新します。 07/31 03:06
35Frainxo6p :老當益壯(?) 07/31 03:07
36Fnadekowang :諾盧來台灣就頂多像去年尼柏特 07/31 03:08
37Fdeflife :這顆看起來猛猛der~ 07/31 03:08
38Fjeffkid :10號都要死了,5號正強壯… 07/31 03:08
39Fjeffkid :令人好奇過去有編號差那麼多的颱風共存嗎? 07/31 03:08
40Fjefflin555 :JMA稍早也調降了海棠的強度了,現在也是990hPa 18m/ 07/31 03:09
41Fjefflin555 :jeffkid有唷,紀錄也是差五號 07/31 03:10
42Fstaff23 :看衛星雲圖 有機會破紀錄嗎 太平洋那似乎有點熱鬧 07/31 03:12
43Fxyz01016991 :那再生一個就破紀錄了XDDD哇 今年都蠻特別的 07/31 03:19
44Ftaiwanstrike:感覺很兇 07/31 03:20
45Fleon1309 :嘖嘖…吸飽吸滿頭好壯壯! 07/31 03:23
46Fjefflin555 :JMA五日進路發布了,看起來影響關東的機率有變動? 07/31 03:23
47Fnerv072 :好漂亮 07/31 03:23
48Fdan5120 :預測是往日本跑嗎 07/31 03:24
49Fjefflin555 :JMA速度預測一直是 ゆっくり 看他要のんびり多久? 07/31 03:24
50Fjeffkid :Center Temp : +19.1C 07/31 03:32
51Fjeffkid :CWB:40m/s,950hPa 07/31 03:35
52Fjeffkid :有數值往琉球方向跑… 07/31 03:50
53Fqazthlin :T值7.0了 07/31 04:05
54Fdunking :老J預測會到145kts C5等級! 07/31 04:33
55Fpp688039 :那眼睛真的好漂亮哦 07/31 04:35
56Fdunking :https://m.imgur.com/PQbh9Le C5 get!! 07/31 04:43
57Feeeee118 :跳有夠快 老J上一報才95!! 07/31 04:44
58Fjefflin555 :老 J 也 "retrospectively" 修正海棠強度了 07/31 04:57
59Fjefflin555 :JTWC把海棠從 TD 重新升級為 TS!! LOL 07/31 04:58
60Fjefflin555 :12W: 30KTS --> 35KTS 07/31 04:59
61Fjefflin555 :07W: 95KTS --> 140KTS 07/31 04:59
62Fjefflin555 :07W 變成 STY 了 07/31 05:00
63Fjefflin555 :13級風暴風半徑 80 公里左右 07/31 05:01
64Fjefflin555 :一分鐘平均近中心最大風速 70m/s 陣風 85m/s 07/31 05:03
65Fjefflin555 :我猜嘴硬的 CWB 09:30會給 48m/s 58m/s 935hPa 07/31 05:05
66Fben108472 :JTWC亂給成這樣 07/31 05:11
67Fqazthlin :諾盧現在的強度要北上就要把高壓幹掉了 07/31 05:11
68FICEFTP :目前預測有影響西日本、東日本及日本東部海面等的 07/31 05:24
69FICEFTP :各種預測,動向還不確定 07/31 05:25
70Fjefflin555 :JTWC認為海棠在台灣海峽再次增強,我也是醉了XD 07/31 05:26
71Fjefflin555 :我希望07W在北迴歸線南邊多玩一會兒 07/31 05:27
72Fjefflin555 :07W往南走了剛剛好 9 個緯度 07/31 05:28
73FIcebearK :諾盧好漂亮 07/31 06:00
74FImMACACO :W環快繞一圈了 不過 140KTS 還是太暴走了點XD 07/31 06:11
75Fa5413eric :OMYGOD諾盧那個眼 整個小巧可愛又帶點暴力的感覺 07/31 06:53
76FTenbeensWu :諾盧C5就算了,JTWC還說會再增強 07/31 07:01
77Fjefflin555 :"整個小巧可愛又帶點暴力的感覺" 怎聽起來怪怪的XDD 07/31 07:10
78Fapproved :就是小隻馬但很兇的意思(誤) 07/31 08:24
79Fzadla2002 :整個大爆走啊 07/31 08:39
80Fjay1207 :8/6會去東京玩一星期,不知道會被這颱風影響嗎。 07/31 09:14
81Fkoxinga :唯有長榮航空 不受台風影響 07/31 09:16
82Fkikikikaka :眼睛也太可愛了吧xDD 07/31 10:18
83Fraindayla :好煩 8/6要去京都..QQ快走啊 07/31 12:29
84Fwty84136 :8/6+1 QQ 07/31 12:54
85Fspecialswan :8/6+1QQ 07/31 12:58
86Fdarren8221 :好強 07/31 13:42
87FDanasYuri :跟龍王是同類型的颱風 07/31 14:06
88FYifong :8/6+1......... 07/31 14:17
89Fkillseven :諾盧目前是今年風王...cat5 140kt...xd太恐怖 07/31 14:19
90Fapproved :台北熱爆 颱風猛爆 海上警報 藤原抱抱全部達標 07/31 14:53
91Fapproved :這個七月的大氣變化真是峰迴路轉高潮迭起 07/31 14:54
92Fkillseven :這個七月的颱風數量也是爆多 前兩周還再說偏少 07/31 14:55
93Fkillseven :轉眼間生成八個颱風 不知道是不是史上最多七月生 07/31 14:55
94Fkillseven :成颱風的月份 07/31 14:55
95FICEFTP :EC這報走四國及西半本州路線 07/31 14:56
96Fkbty245 :CWB對這種小環流大眼颱比較沒好感,當年桑美也只給4 07/31 14:59
97Fkbty245 :8m/s 07/31 14:59
98Fkillseven :桑美記得風速爆表阿...xd cwb應該是低估了才對 07/31 15:06
99Fjefflin555 :JMA表示: 第五號颱風正式活過第十號颱風 07/31 15:13
100Fwhitezebra :8/6要從九州回來... 07/31 15:25
101Fkillseven :話說諾盧的過彎次數應該也很誇張 有六次大幅度轉彎 07/31 15:29
102Fkillseven :不知道知名韋恩的大幅度轉彎次數是? 07/31 15:29
103Fvvvi :諾魯掰掰後把整個路徑畫出來應該很精彩 07/31 17:23
104FIcebearK :其實現在的路徑看起來就很精彩了XDD 07/31 18:08
105FIcebearK :剛剛算了一下 韋恩包含熱低時期有6次大轉彎(>90度) 07/31 18:15
106Fkillseven :那麼諾盧只要再未來再轉一次西邊 就會突破韋恩障礙 07/31 19:05
107Fkillseven :因為有預測未來北上後還會再轉一次西邊 07/31 19:05
109Fvvvi :好像每家都預測會西轉了 08/01 01:12
110FSuperBMW :朝聖,會去日本遊山玩水觀光的龍王颱風!!! 08/01 02:03
111FSuperBMW :除了韋恩的轉彎紀錄、還有長壽紀錄(21天)要打破!!! 08/01 02:04
112Fkillseven :cwb諾盧升強颱了 08/01 06:38
113Fvvvi :一晚後 西轉的預測又沒了 一路西北 08/01 11:23